Regional Weather Roundup
Issued by NWS Sterling, VA

Home | Current Version | Previous Version | Text Only | Print | Product List | Glossary On
Versions: 1 2 3 4 5 6 7 8 9 10 11 12 13 14 15 16 17 18 19 20 21 22 23 24 25 26 27 28
000
ASUS41 KLWX 241111
RWRLWX

REGIONAL WEATHER ROUNDUP
NATIONAL WEATHER SERVICE BALTIMORE MD/WASHINGTON DC
600 AM EST SAT FEB 24 2018

Note: "FAIR" indicates few or no clouds below 12,000 feet
with no significant weather and/or obstructions to visibility.
 TC=TEMPERATURE CELSIUS

 * =Non NWS site. Station does not report precipitation (e.g. rain,
    snow, etc.), thunder, or fog.

DCZ001-MDZ009-015-VAZ040>042-051-053>054-241200-
WASHINGTON METRO

CITY           SKY/WX    TMP DP  RH WIND       PRES   REMARKS
WASHINGTON NAT FOG       49  49 100 N6        30.18R VSB 1/4
DULLES         FOG       48  48 100 E3        30.15F VSB 1/4
ANDREWS AFB    FOG       48  48 100 CALM      30.16R VSB 1/4
FT BELVOIR     FOG       49  48  99 CALM      30.16S VSB 3/8
QUANTICO       CLOUDY    50  50 100 NE5       30.17S FOG
COLLEGE PARK*  CLOUDY    47  47  99 CALM      30.18R VSB 1/4
LEESBURG*      FOG       43  43 100 CALM      30.16F VSB 1/2
MANASSAS*      FOG       49  48  97 E5        30.15F VSB 1/2
GAITHERSBURG*  FOG       46  46 100 CALM      30.17S VSB 1/2

$$

MDZ006>007-011-014-241200-
BALTIMORE METRO

CITY           SKY/WX    TMP DP  RH WIND       PRES   REMARKS
BWI AIRPORT    FOG       45  45 100 SE5       30.16S VSB 1/16
MD SCIENCE CTR   N/A     49  47  93 MISG      30.18R
MARTIN STATE   FOG       46  46 100 CALM      30.20R VSB 1/4
ANNAPOLIS      FOG       47  46  97 N5        30.18R VSB 1/4
FORT MEADE*    CLOUDY    46  45  93 CALM      30.20F VSB 1/4

$$

MDZ012-015-019>023-241200-
MARYLAND EASTERN SHORE

CITY           SKY/WX    TMP DP  RH WIND       PRES   REMARKS
OCEAN CITY     FOG       43  43 100 SW5       30.20S VSB 1/2
SALISBURY      FOG       49  49 100 CALM      30.19R VSB 1/4
BAY BRIDGE AP* FOG       45  45 100 N5        30.19R VSB 1/4
CAMBRIDGE*     FOG       48  48 100 SE8       30.17F VSB 1/2
EASTON*        CLOUDY    50  48  93 CALM      30.21R FOG

$$

MDZ017>025-241200-
SOUTHERN MARYLAND

CITY           SKY/WX    TMP DP  RH WIND       PRES   REMARKS
PATUXENT RIVER FOG       45  45 100 SE5       30.17S VSB 1/4
ST INIGOES     FOG       50  50 100 NE3       30.17S VSB 1/4
LEONARDTOWN*   CLOUDY    48  48 100 CALM      30.18F VSB 1/2

$$

MDZ003>005-241200-
NORTH CENTRAL MARYLAND

CITY           SKY/WX    TMP DP  RH WIND       PRES   REMARKS
FREDERICK*     FOG       46  46 100 CALM      30.19F VSB 1/4
HAGERSTOWN APT FOG       45  43  93 NE3       30.14F VSB 1/2
WESTMINSTER*   FOG       45  45 100 SE3       30.15F VSB 1/4

$$

MDZ501>502-241200-
WESTERN MARYLAND

CITY           SKY/WX    TMP DP  RH WIND       PRES   REMARKS
OAKLAND*       CLOUDY    52  52 100 S3        30.13F VSB 3/4
CUMBERLAND*    CLOUDY    43  43 100 CALM      30.18F VSB 1

$$

VAZ025>031-241200-
SHENANDOAH VALLEY

CITY           SKY/WX    TMP DP  RH WIND       PRES   REMARKS
WINCHESTER*    FAIR      41  41 100 CALM      30.15F FOG
FRONT ROYAL*   CLOUDY    41  41 100 CALM      30.12F
LURAY*         FAIR      46  46 100 CALM      30.12F
NEW MARKET*    MOCLDY    46  45  96 CALM      30.12F
STAUNTON*      FAIR      48  47  98 CALM      30.14F
WAYNESBORO*    FAIR      51  51 100 W3        30.13F

$$

WVZ021-048>050-054>055-241200-
EASTERN WEST VIRGINIA PANHANDLE

CITY           SKY/WX    TMP DP  RH WIND       PRES   REMARKS
MARTINSBURG    FOG       43  43 100 CALM      30.13F VSB 1/4
PETERSBURG*    CLOUDY    43  43  99 CALM      30.14S FOG

$$

VAZ036>039-050-241200-
CENTRAL FOOTHILLS

CITY           SKY/WX    TMP DP  RH WIND       PRES   REMARKS
CHARLOTTESVILL FOG       51  49  92 S7        30.11F VSB 1/4
CULPEPER*      FOG       50  48  95 CALM      30.15F VSB 1/4
ORANGE*        CLOUDY    50  50 100 CALM      30.13S FOG
GORDONSVILLE*  FOG       50  50 100 SW6       30.13F VSB 3/4
WARRENTON*     FOG       50  48  91 NE5       30.13F VSB 1/2

$$

VAZ055>057-241200-
NORTH AND CENTRAL PIEDMONT

CITY           SKY/WX    TMP DP  RH WIND       PRES   REMARKS
FREDERICKSBRG* FAIR      48  48 100 CALM      30.14F FOG
STAFFORD*      CLOUDY    51  51 100 N3        30.20R FOG

$$

NCZ024-NYZ072-PAZ021-071-VAZ022-071-241200-
OTHER REGIONAL OBSERVATIONS

CITY           SKY/WX    TMP DP  RH WIND       PRES   REMARKS
NEW YORK CITY  FAIR      44  41  89 W6        30.18R
PHILADELPHIA   CLOUDY    44  43  96 NW3       30.20R FOG
PITTSBURGH     CLOUDY    48  45  89 N13       30.15S
ROANOKE        MOCLDY    47  45  93 CALM      30.19F
RICHMOND       FOG       52  52 100 S7        30.17S VSB 1/4
RALEIGH        CLOUDY    60  60 100 SW14      30.22S FOG

$$

ANZ530>537-241200-
MARINE OBSERVATIONS

STATION/POSITION TIME  TEMP    WIND        PRES
                       AIR SEA DIR/SP/G
                 (UTC) (F)     (DEG/KT/KT) (MB)
THOMAS PT LIGHT  1100   45 42  280/  2/  3   N/A
BALT KEY BRIDGE  1048   44      60/  4/  5 1022.0R
COVE POINT       1048   44     180/  9/  9 1022.4F
LEWISETTA        1048   50 49  220/  4/  5 1021.5F
SOLOMONS ISLAND  1048   44 43  120/  4/  5 1021.5R
PINEY POINT      1036           80/  3/  4   N/A

$$





USA.gov is the U.S. government's official web portal to all federal, state and local government web resources and services.